Weather History for Hot Springs, VA

Change the Weather History Date:

Thursday, December 8, 2011

  Actual Average Record
Temperature  
Mean Temperature 25 °F -  
Max Temperature 33 °F 38 °F 55 °F (1998)
Min Temperature 17 °F 26 °F 8 °F (2006)
Degree Days  
Heating Degree Days 40    
Moisture  
Dew Point 18 °F    
Average Humidity 78    
Maximum Humidity 100    
Minimum Humidity 35    
Precipitation  
Precipitation 0.00 in - - ()
Sea Level Pressure  
Sea Level Pressure 30.12 in    
Wind  
Wind Speed 9 mph (WSW)    
Max Wind Speed 13 mph    
Max Gust Speed -    
Visibility 10 miles    
Events Snow    
Averages and records for this station are not official NWS values.
T = Trace of Precipitation, MM = Missing Value Source: NWS Daily Summary

Daily Weather History Graph

Daily Weather History Graph

Search for Another Location

Airport:

Trip Planner

Search our weather history database for the weather conditions in past years. The results will help you decide how hot, cold, wet, or windy it might be!

Date:

Astronomy

Dec. 08, 2011 Rise Set
Actual Time 7:22 AM EST 4:59 PM EST
Civil Twilight 6:53 AM EST 5:29 PM EST
Nautical Twilight 6:20 AM EST 6:01 PM EST
Astronomical Twilight 5:48 AM EST 6:33 PM EST
Moon 3:37 PM EST (12/8) 5:33 AM EST (12/8)
Length of Visible Light 10h 35m
Length of Day
9h 37m
Waxing Gibbous, 97% of the Moon is Illuminated
Dec 8
Waxing Gibbous
Dec 10
Full
Dec 17
Last Quarter
Dec 24
New
Jan 1
First Quarter

Hourly Weather History & Observations

Time (EST) Temp. Windchill Dew Point Humidity Pressure Visibility Wind Dir Wind Speed Gust Speed Precip Events Conditions
12:15 AM 24.8 °F - 21.2 °F 86% 29.85 in 2.5 mi North - - N/A Snow Light Snow
12:55 AM 21.2 °F - 21.2 °F 100% 29.89 in 7.0 mi North - - N/A   Overcast
1:35 AM 21.2 °F - 21.2 °F 100% 29.91 in 5.0 mi North - - N/A   Overcast
1:55 AM 21.2 °F - 19.4 °F 93% 29.92 in 10.0 mi North - - N/A   Overcast
2:35 AM 19.4 °F - 17.6 °F 93% 29.93 in 10.0 mi North - - N/A   Overcast
2:55 AM 19.4 °F - 17.6 °F 93% 29.93 in 10.0 mi North - - N/A   Mostly Cloudy
3:15 AM 19.4 °F - 17.6 °F 93% 29.95 in 10.0 mi North - - N/A   Mostly Cloudy
3:35 AM 19.4 °F - 17.6 °F 93% 29.95 in 10.0 mi North - - N/A   Mostly Cloudy
3:55 AM 19.4 °F - 17.6 °F 93% 29.96 in 10.0 mi North - - N/A   Scattered Clouds
4:15 AM 19.4 °F - 15.8 °F 86% 29.97 in 10.0 mi North - - N/A   Clear
4:35 AM 19.4 °F - 15.8 °F 86% 29.98 in 10.0 mi North - - N/A   Clear
4:55 AM 19.4 °F - 15.8 °F 86% 29.98 in 10.0 mi North - - N/A   Clear
5:15 AM 19.4 °F - 15.8 °F 86% 30.00 in 10.0 mi North - - N/A   Clear
5:35 AM 19.4 °F - 15.8 °F 86% 30.01 in 10.0 mi North - - N/A   Clear
5:55 AM 17.6 °F - 15.8 °F 93% 30.01 in 10.0 mi North - - N/A   Clear
6:15 AM 17.6 °F - 15.8 °F 93% 30.03 in 10.0 mi North - - N/A   Clear
6:35 AM 17.6 °F - 15.8 °F 93% 30.01 in 10.0 mi North - - N/A   Clear
6:55 AM 17.6 °F - 15.8 °F 93% 30.03 in 10.0 mi North - - N/A   Clear
7:15 AM 17.6 °F - 15.8 °F 93% 30.03 in 10.0 mi North - - N/A   Clear
7:55 AM 19.4 °F - 15.8 °F 86% 30.05 in 10.0 mi North - - N/A   Clear
8:15 AM 19.4 °F - 15.8 °F 86% 30.06 in 10.0 mi North - - N/A   Clear
8:35 AM 19.4 °F - 15.8 °F 86% 30.09 in 10.0 mi North - - N/A   Clear
8:55 AM 19.4 °F - 15.8 °F 86% 30.12 in 10.0 mi North - - N/A   Clear
9:15 AM 19.4 °F - 15.8 °F 86% 30.13 in 10.0 mi North - - N/A   Clear
9:35 AM 19.4 °F - 15.8 °F 86% 30.16 in 10.0 mi North - - N/A   Clear
9:55 AM 21.2 °F - 17.6 °F 86% 30.16 in 10.0 mi North - - N/A   Clear
10:15 AM 21.2 °F - 17.6 °F 86% 30.16 in 10.0 mi North - - N/A   Clear
10:35 AM 21.2 °F - 17.6 °F 86% 30.16 in 10.0 mi North - - N/A   Clear
10:55 AM 24.8 °F - 19.4 °F 80% 30.18 in 10.0 mi North - - N/A   Clear
11:15 AM 24.8 °F - 19.4 °F 80% 30.18 in 10.0 mi North - - N/A   Clear
11:35 AM 26.6 °F - 19.4 °F 74% 30.18 in 10.0 mi North - - N/A   Clear
11:55 AM 26.6 °F 17.5 °F 21.2 °F 80% 30.18 in 10.0 mi West 9.2 mph - N/A   Clear
12:15 PM 26.6 °F 16.8 °F 21.2 °F 80% 30.18 in 10.0 mi West 10.4 mph - N/A   Clear
12:35 PM 28.4 °F 20.4 °F 21.2 °F 74% 30.18 in 10.0 mi West 8.1 mph - N/A   Clear
12:55 PM 28.4 °F 21.2 °F 21.2 °F 74% 30.18 in 10.0 mi WSW 6.9 mph - N/A   Clear
1:15 PM 28.4 °F 19.1 °F 21.2 °F 74% 30.18 in 10.0 mi WSW 10.4 mph - N/A   Clear
1:35 PM 28.4 °F 20.4 °F 23.0 °F 80% 30.18 in 10.0 mi WSW 8.1 mph - N/A   Clear
1:55 PM 28.4 °F 19.1 °F 23.0 °F 80% 30.17 in 10.0 mi West 10.4 mph - N/A   Clear
2:15 PM 30.2 °F 21.3 °F 23.0 °F 75% 30.18 in 10.0 mi West 10.4 mph - N/A   Clear
2:35 PM 30.2 °F 22.6 °F 23.0 °F 75% 30.18 in 10.0 mi West 8.1 mph - N/A   Clear
2:55 PM 30.2 °F 22.6 °F 23.0 °F 75% 30.20 in 10.0 mi West 8.1 mph - N/A   Clear
3:15 PM 30.2 °F 23.4 °F 24.8 °F 80% 30.20 in 10.0 mi West 6.9 mph - N/A   Clear
3:35 PM 30.2 °F 22.6 °F 24.8 °F 80% 30.21 in 10.0 mi West 8.1 mph - N/A   Clear
3:55 PM 30.2 °F 20.8 °F 24.8 °F 80% 30.21 in 10.0 mi West 11.5 mph - N/A   Clear
4:15 PM 30.2 °F 20.2 °F 23.0 °F 75% 30.21 in 10.0 mi West 12.7 mph - N/A   Clear
4:35 PM 28.4 °F 19.1 °F 23.0 °F 80% 30.21 in 10.0 mi West 10.4 mph - N/A   Clear
4:55 PM 28.4 °F 19.7 °F 23.0 °F 80% 30.22 in 10.0 mi West 9.2 mph - N/A   Clear
5:15 PM 28.4 °F 19.1 °F 23.0 °F 80% 30.23 in 10.0 mi West 10.4 mph - N/A   Clear
5:35 PM 28.4 °F 19.1 °F 23.0 °F 80% 30.23 in 10.0 mi West 10.4 mph - N/A   Clear
5:55 PM 28.4 °F 20.4 °F 23.0 °F 80% 30.22 in 10.0 mi West 8.1 mph - N/A   Clear
6:35 PM 28.4 °F 20.4 °F 21.2 °F 74% 30.23 in 10.0 mi West 8.1 mph - N/A   Clear
6:55 PM 28.4 °F 23.3 °F 19.4 °F 69% 30.23 in 10.0 mi West 4.6 mph - N/A   Clear
7:15 PM 33.8 °F 29.6 °F 10.4 °F 38% 30.23 in 10.0 mi WSW 4.6 mph - N/A   Clear
7:35 PM 32.0 °F 28.7 °F 10.4 °F 41% 30.23 in 10.0 mi WSW 3.5 mph - N/A   Clear
7:55 PM 33.8 °F 30.8 °F 8.6 °F 35% 30.23 in 10.0 mi WSW 3.5 mph - N/A   Clear
8:15 PM 32.0 °F 25.6 °F 8.6 °F 38% 30.24 in 10.0 mi SSW 6.9 mph - N/A   Clear
8:35 PM 33.8 °F 29.6 °F 8.6 °F 35% 30.24 in 10.0 mi SSW 4.6 mph - N/A   Clear
8:55 PM 30.2 °F 24.3 °F 14.0 °F 51% 30.24 in 10.0 mi South 5.8 mph - N/A   Clear
9:15 PM 30.2 °F 23.4 °F 15.8 °F 55% 30.24 in 10.0 mi SW 6.9 mph - N/A   Clear
9:35 PM 30.2 °F 23.4 °F 14.0 °F 51% 30.24 in 10.0 mi SSW 6.9 mph - N/A   Clear
9:55 PM 30.2 °F 22.6 °F 17.6 °F 60% 30.24 in 10.0 mi South 8.1 mph - N/A   Clear
10:15 PM 32.0 °F 24.2 °F 17.6 °F 55% 30.24 in 10.0 mi South 9.2 mph - N/A   Clear
10:35 PM 32.0 °F 23.6 °F 19.4 °F 60% 30.24 in 10.0 mi SSW 10.4 mph - N/A   Clear
11:15 PM 32.0 °F 24.2 °F 19.4 °F 60% 30.23 in 10.0 mi SSW 9.2 mph - N/A   Clear
11:35 PM 33.8 °F 25.8 °F 19.4 °F 56% 30.23 in 10.0 mi South 10.4 mph 18.4 mph N/A   Clear
11:55 PM 32.0 °F 23.0 °F 19.4 °F 60% 30.22 in 10.0 mi South 11.5 mph - N/A   Clear